{"data":{"norad_id":59666,"epoch":"2026-09-21T14:38:19.139136Z","epoch_age_seconds":75348,"freshness":"FRESH","line1":"1 59666U 24084N   26264.60994374  .00000487  00000+0  27207-4 0  9992","line2":"2 59666  43.0026  15.5991 0001235 276.2231  83.8479 15.27581251134333","mean_motion":15.27581251,"eccentricity":0.0001235,"inclination_deg":43.0026,"raan_deg":15.5991,"arg_perigee_deg":276.2231,"mean_anomaly_deg":83.8479,"bstar":2.7207e-5,"rev_number":13433,"period_min":94.266671514679,"perigee_km":482.19799407793,"apogee_km":483.8927061184,"semimajor_km":6861.1823500982,"source":"CELESTRAK","updated_at":"2026-09-22T09:00:49.027566Z"}}